Regional Weather Roundup
Issued by NWS Newport/Morehead, NC

Current Version | Previous Version | Text Only | Print | Product List | Glossary Off
Versions: 1 2 3 4 5 6 7 8 9 10 11 12 13 14 15 16 17 18 19 20 21 22 23 24 25 26 27 28 29 30 31 32 33 34 35 36 37 38 39 40 41 42 43 44 45 46 47 48 49 50
000 ASUS42 KMHX 040924 RWRMHX WEATHER ROUNDUP FOR EASTERN NORTH CAROLINA NATIONAL WEATHER SERVICE NEWPORT/MOREHEAD CITY NC 400 AM EST SUN DEC 04 2016 NOTE: "FAIR" INDICATES FEW OR NO CLOUDS BELOW 12,000 FEET WITH NO SIGNIFICANT WEATHER AND/OR OBSTRUCTIONS TO VISIBILITY NCZ015>017-031-032-045>047-102-103-041000- NORTH COAST CITY SKY/WX TMP DP RH WIND PRES REMARKS EDENTON CLOUDY 42 34 75 CALM 30.26F ELIZABETH CITY CLOUDY 42 34 73 N8 30.25F KITTY HAWK MOSUNNY 47 38 72 N5 30.22S MANTEO PTCLDY 46 39 76 N5 30.24S $$ NCZ045>047-081-094-103-104-041000- CENTRAL COAST CITY SKY/WX TMP DP RH WIND PRES REMARKS FRISCO CLOUDY 49 40 71 N8 30.22F $$ NCZ095-097-098-100-101-041000- SOUTHERN COAST CITY SKY/WX TMP DP RH WIND PRES REMARKS BEAUFORT CLOUDY 47 40 76 N5 30.24S CEDAR ISLAND NOT AVBL JACKSONVILLE CLOUDY 46 36 68 N5 30.25R PINEY ISLAND CLOUDY N/A N/A N/A N12 30.24R WILMINGTON CLOUDY 46 36 68 N7 30.24S $$ NCZ011>013-027>030-043-044-078>080-089-090>093-098-041000- COASTAL PLAIN CITY SKY/WX TMP DP RH WIND PRES REMARKS AHOSKIE MOCLDY 38 32 78 CALM 30.28R CLINTON CLOUDY 46 36 68 N3 30.26F ELIZABETHTOWN CLOUDY 45 37 76 CALM 30.24F GOLDSBORO CLOUDY 44 34 67 N5 30.24S GREENVILLE CLOUDY 41 36 81 CALM 30.27S HAVELOCK CLOUDY 47 37 68 NE5 30.25S KENANSVILLE CLOUDY 45 37 76 CALM 30.25F KINSTON N/A 43 37 78 CALM 30.27S NEW BERN CLOUDY 45 35 68 N6 30.26S RICHLANDS CLOUDY 44 38 79 CALM 30.25F ROCKY MOUNT CLOUDY 41 35 79 NE5 30.27S WASHINGTON CLOUDY 41 35 77 CALM 30.26F WHITEVILLE CLOUDY 46 37 70 CALM 30.23F $$ AMZ130-135-150-152-154-156-158-170-250-252-270-ANZ085-086-088-633-658-670-041000- MARINE OBSERVATIONS STATION/POSITION TIME TEMP WIND PRES WAVE SWELL AIR SEA DIR/SP/G HT/PER HT/PER (UTC) (F) (DEG/KT/KT) (MB) (FT/S) (FT/S) CHESAPEAKE LIGHT NOT AVBL 64 E VA BEACH 0850 49 60 360/ 16/ 19 1023.0 6/ 7 DUCK 0900 48 55 10/ 11/ 18 1023.1 2 E DUCK NOT AVBL OREGON INLET 0900 48 53 360/ 9/ 14 1023.4 13E OREGON INLT 0900 60 N/A 5/ 6 5/ 6 HATTERAS CG 0900 49 57 10/ 15/ 18 1023.0 DIAMOND BUOY 0850 53 75 20/ 16/ 21 1022.9 5/ 9 3/ 9 CAPE LOOKOUT 0900 49 10/ 10/ 12 1023.5 BEAUFORT LAB 0900 47 55 30/ 4/ 5 1022.9 30 SE NEW RVR IN 0908 54 70 40/ 12/ 17 1023.3 30 SE NEW RVR IN NOT AVBL 27 SE WRIGHTSVLE 0908 55 68 50/ 12/ 17 1022.7 5 SE WRIGHTSVLE 0908 51 63 40/ 16/ 25 1023.1 225 S CAPE HAT 0850 64 73 40/ 12/ 16 1020.9 5/ 9 5/ 9 41 SE CHARLESTON 0850 61 74 50/ 8/ 12 1021.8 3/ 8 2/ 8 $$

USA.gov is the U.S. government's official web portal to all federal, state and local government web resources and services.